Location: Kalamazoo
(42.2920°N, 85.5870°W)
Time: 01:33:15
(UTC-04:00)

Daily predictions for brighter satellites

Satellite Brightness Start Highest point End
(mag) Time Altitude Azimuth Time Altitude Azimuth Time Altitude Azimuth
COSMOS 2455 3.7 00:04:48 10° NNW 00:10:05 39° NE 00:10:05 39° NE
Cosmos 2237 Rocket 2.9 00:12:24 48° NNE 00:12:24 48° NNE 00:16:25 10° NNE
Cosmos 968 Rocket 4.4 00:09:05 10° NNW 00:12:34 44° NNW 00:12:34 44° NNW
Cosmos 1980 4.3 00:18:31 53° N 00:18:31 53° N 00:23:00 10° NNE
Lacrosse 5 4.4 00:19:56 10° WNW 00:23:34 19° NNW 00:27:12 10° NNE
CENTAUR R/B 3.0 00:22:08 10° NNW 00:30:03 74° NE 00:30:30 73° E
NOSS 3-4 (A) 4.2 00:28:46 44° W 00:30:10 51° NW 00:36:32 10° NNE
NOSS 3-4 (C) 4.1 00:28:58 45° W 00:30:16 52° NW 00:36:38 10° NNE
ATLAS CENTAUR R/B 4.0 00:20:24 10° NW 00:32:02 42° NNE 00:33:12 38° NE
Cosmos 2278 Rocket 3.7 00:45:05 10° NW 00:48:29 29° WNW 00:48:29 29° WNW
Terra 4.3 00:55:49 16° WNW 00:55:49 16° WNW 00:57:28 10° NW
CZ-2C R/B 3.9 01:01:14 10° NNE 01:04:26 37° N 01:04:26 37° N
Cosmos 2219 Rocket 4.5 01:06:05 15° W 01:08:35 19° NW 01:12:31 10° N
SL-16 R/B 3.4 01:21:36 38° N 01:21:36 38° N 01:25:16 10° NNE
Mayak 1.7 01:21:05 10° NNE 01:21:40 14° NNE 01:21:40 14° NNE
Cosmos 1943 Rocket 4.0 01:29:06 10° N 01:32:59 24° NE 01:32:59 24° NE
Cosmos 2369 Rocket 3.5 01:51:39 10° NNW 01:55:12 37° N 01:55:12 37° N
CENTAUR R/B 4.5 02:13:42 10° NW 02:17:39 24° W 02:17:39 24° W
USA 215 3.8 02:33:40 51° NW 02:33:40 51° NW 02:38:23 10° NW
ADEOS Rocket 4.2 02:35:50 10° NNE 02:39:30 30° ENE 02:39:30 30° ENE
Resurs 1-4 Rocket 3.9 03:00:46 10° NE 03:04:34 23° E 03:04:34 23° E
BREEZE-M DEB (TANK) 4.2 03:06:14 62° NNE 03:06:14 62° NNE 03:16:47 10° ENE
COSMOS 2406 4.3 03:14:18 37° E 03:14:18 37° E 03:18:44 10° NE
Cosmos 1943 Rocket 3.8 03:12:18 10° NW 03:14:29 24° NW 03:14:29 24° NW
Cosmos 1656 Rocket 4.2 03:13:40 10° NNW 03:18:11 55° N 03:18:11 55° N
CZ-2D R/B 3.3 03:21:01 10° NNE 03:25:45 34° E 03:25:45 34° E
Cosmos 540 Rocket 4.1 03:31:10 52° NNE 03:31:10 52° NNE 03:35:02 10° NNE
IRS-1D 4.4 03:32:23 10° NNE 03:37:11 42° E 03:37:11 42° E
BREEZE M DEB (TANK) 4.2 03:40:16 32° E 03:40:16 32° E 03:44:42 10° ESE
Meteor 2-1 Rocket 4.3 03:39:36 69° N 03:39:36 69° N 03:44:26 10° N
CZ-3A R/B 3.1 03:34:04 10° NW 03:43:23 75° SW 03:43:26 75° SW
CBERS-1 4.3 03:40:37 10° NNE 03:44:53 62° N 03:44:53 62° N
SL-08 R/B 4.4 03:51:36 37° NNW 03:51:36 37° NNW 03:54:32 10° NNW
Cosmos 2123 Rocket 3.8 03:44:51 10° N 03:51:09 89° WSW 03:51:28 82° S
Cosmos 1821 Rocket 4.1 03:51:44 60° WNW 03:51:44 60° WNW 03:57:36 10° N
Lacrosse 5 3.6 03:48:13 10° NNW 03:52:44 31° NNE 03:57:13 10° E
Cosmos 1633 Rocket 4.5 03:51:23 10° N 03:55:21 33° ENE 03:55:56 32° E
ADEOS 4.1 03:53:47 10° NNE 03:58:51 49° E 03:59:25 47° ESE
Cosmos 1934 Rocket 3.9 04:00:37 66° W 04:00:37 66° W 04:06:39 10° N
Cosmos 1726 3.8 04:01:54 32° NE 04:01:54 32° NE 04:04:21 10° NNE
Cosmos 2098 Rocket 3.9 04:03:38 52° NW 04:03:38 52° NW 04:07:34 10° N
SL-16 R/B 2.4 04:04:43 68° S 04:05:33 81° WSW 04:11:48 10° NNW
USA 229 DEB 3.7 04:05:39 10° NW 04:12:44 62° WSW 04:14:06 53° SSW
USA 229 3.7 04:05:46 10° NW 04:12:50 63° WSW 04:14:19 52° SSW
ERS-1 4.3 04:08:30 10° NNE 04:13:27 87° NW 04:13:27 87° NW
Cosmos 1315 Rocket 3.6 04:10:31 10° N 04:13:45 51° NNE 04:13:45 51° NNE
NOSS 3-1 (A) 4.4 04:10:16 10° NNW 04:17:47 64° NE 04:26:07 10° SE
Cosmos 2221 3.6 04:20:44 36° NW 04:20:44 36° NW 04:23:43 10° N
Cosmos 1605 Rocket 4.0 04:19:33 59° SW 04:20:36 69° W 04:27:00 10° N
ADEOS Rocket 3.7 04:21:30 10° N 04:26:18 32° WNW 04:26:26 32° WNW
Cosmos 1538 Rocket 4.2 04:26:52 53° SSE 04:28:01 71° ESE 04:33:22 10° NNE
IRS-1C 4.5 04:23:31 10° N 04:28:36 47° WNW 04:28:50 46° WNW
Cosmos 1666 Rocket 3.5 04:26:45 10° N 04:31:02 79° WNW 04:31:02 79° WNW
Cosmos 1805 Rocket 4.4 04:28:20 10° NNW 04:31:26 38° NW 04:31:26 38° NW
UNKNOWN OBJECT B 3.0 04:31:30 10° NNE 04:35:35 70° ESE 04:35:51 67° SE
BREEZE-M DEB (TANK) 3.1 04:38:34 40° NW 04:39:37 59° NNE 04:46:33 10° E
Cosmos 1151 Rocket 4.1 04:41:23 24° SE 04:43:28 40° E 04:47:29 10° NNE
Resurs 1-4 Rocket 2.4 04:39:54 10° N 04:44:55 46° WNW 04:45:39 43° W
NOSS 3-1 (C) 4.0 04:38:13 10° NW 04:45:51 76° WSW 04:54:16 10° SSE
ARIANE 5 R/B 2.7 04:40:55 10° N 04:46:01 54° WNW 04:46:56 47° WSW
Cosmos 1833 Rocket 3.8 04:45:25 18° SSE 04:49:03 39° ESE 04:54:15 10° NE
CZ-2D R/B 3.2 04:47:28 10° NNE 04:51:29 87° WNW 04:52:00 67° SSW
MOS 1 Rocket 3.7 04:52:36 10° N 04:56:40 38° WNW 04:56:55 38° W
SL-27 R/B 3.8 04:57:47 27° NW 04:57:47 27° NW 05:00:11 10° N
COSMOS 2406 4.2 04:56:22 28° W 04:57:50 32° NW 05:02:56 10° N
Sich 1 3.7 04:56:01 10° NNW 04:59:35 36° WNW 04:59:35 36° WNW
Cosmos 2100 Rocket 4.0 04:56:35 28° SSW 05:00:08 79° W 05:06:33 10° N
Meteor 2-17 Rocket 4.4 04:58:48 33° SSW 05:01:36 67° W 05:07:41 10° N
Cosmos 1802 Rocket 4.0 04:57:19 21° S 05:01:36 85° E 05:07:56 10° N
Cosmos 1300 3.2 05:03:53 41° WNW 05:03:53 41° WNW 05:07:25 10° N
Okean O Rocket 3.6 05:00:18 10° NE 05:04:03 27° E 05:07:46 10° SSE
Cosmos 1980 Rocket 4.2 05:00:31 10° N 05:05:24 30° NE 05:10:17 10° ESE
CZ-2D R/B 3.0 05:01:10 10° N 05:05:51 32° WNW 05:07:04 28° W
USA 161 3.6 05:08:29 14° N 05:08:29 14° N 05:08:52 10° N
Tiangong 2 1.6 05:08:15 47° SSE 05:08:15 47° SSE 05:11:18 10° E
Shenzhou-11 Module 2.0 05:14:00 65° S 05:14:08 66° SSE 05:17:12 10° E
Cosmos 773 Rocket 4.1 05:12:55 33° SW 05:15:11 59° WNW 05:20:27 10° NNE
Cosmos 2278 3.6 05:09:50 10° NNW 05:15:30 81° WSW 05:21:08 10° SSE
Cosmos 1455 2.7 05:16:37 17° S 05:19:22 58° E 05:23:04 10° NNE
Cosmos 1697 Rocket 3.2 05:14:29 10° NNW 05:20:08 62° ENE 05:25:44 10° SE
Tsikada Rocket 4.4 05:15:06 10° N 05:21:25 67° E 05:27:45 10° SSE
Cosmos 2173 Rocket 4.1 05:17:42 23° SSW 05:21:41 59° W 05:27:59 10° N
Cosmos 1470 Rocket 3.7 05:19:39 10° NNW 05:23:51 50° W 05:26:15 23° SSW
MOS 1-B 4.3 05:23:35 10° NNE 05:29:26 87° WNW 05:34:57 12° SSW
COSMOS 2487 2.3 05:28:17 30° SSW 05:29:53 79° WNW 05:33:27 10° NNE
ADEOS II 2.1 05:24:48 10° NNE 05:30:05 84° ESE 05:35:21 10° SSW
Cosmos 192 4.3 05:29:15 20° SSW 05:32:41 80° WNW 05:37:40 10° NNE
Cosmos 1515 Rocket 4.0 05:30:44 26° SW 05:32:45 44° WNW 05:37:01 10° N
Cosmos 1633 Rocket 4.4 05:29:40 10° NW 05:32:54 21° W 05:32:57 21° W
Lacrosse 5 1.8 05:31:00 10° NW 05:36:00 62° SW 05:40:59 10° SSE
Cosmos 1726 4.3 05:36:31 12° WNW 05:36:31 12° WNW 05:37:59 10° NW
Cosmos 2082 Rocket 2.1 05:35:50 17° SSW 05:40:15 78° WNW 05:45:56 10° NNE
Cosmos 1459 Rocket 4.4 05:37:03 19° SW 05:40:55 40° WNW 05:46:35 10° N
Cosmos 2228 Rocket 4.0 05:39:48 22° WSW 05:41:38 30° WNW 05:45:33 10° NNW
Cosmos 2084 3.6 05:40:10 17° SSW 05:43:11 63° ESE 05:47:02 10° NE
Cosmos 1869 Rocket 4.0 05:41:31 10° N 05:45:59 68° E 05:50:24 10° SSE
OAO 2 Rocket 4.4 05:46:15 16° SW 05:49:12 29° SSE 05:53:29 10° ESE
SL-16 R/B 4.2 05:49:49 12° W 05:50:03 12° W 05:52:11 10° WNW
Lacrosse 4 Rocket 4.2 05:49:37 10° SSE 05:52:32 17° ESE 05:55:30 10° ENE
CZ-4B R/B 3.3 05:52:58 10° NNE 05:58:27 80° ESE 06:03:49 10° S
Timation 2 Rocket 4.2 05:55:36 10° SSW 06:01:32 71° ESE 06:07:41 10° NNE
ATLAS 2AS CENTAUR R/B 3.6 05:54:30 10° NNW 06:02:31 64° NE 06:09:55 10° SE
Cosmos 1892 3.7 05:59:18 10° NNW 06:02:33 26° W 06:05:48 10° SSW
PSLV R/B 3.6 05:58:40 10° N 06:02:58 62° WNW 06:07:11 10° SSW
Cosmos 1869 3.3 05:59:17 10° S 06:03:14 89° W 06:07:15 10° N
Cosmos 1656 4.1 05:57:59 10° NW 06:03:18 41° WSW 06:08:35 10° S
Meteor 2-3 Rocket 4.2 05:59:00 10° NNW 06:04:11 39° W 06:09:25 10° SSW
Landsat 4 3.6 06:01:03 10° S 06:04:46 79° WSW 06:08:34 10° NNW
PSLV R/B 4.3 06:00:58 10° N 06:04:56 45° WNW 06:08:52 10° SW
Cosmos 1408 2.5 06:02:33 10° N 06:06:11 89° E 06:09:46 10° S
Meteor 1-31 Rocket 3.6 06:03:32 10° NNE 06:07:26 55° E 06:11:18 10° S
Cosmos 1825 2.1 06:06:22 10° N 06:10:12 88° W 06:14:00 10° S
Cosmos 1371 Rocket 4.0 06:05:06 10° NNW 06:10:21 80° WSW 06:15:37 10° SSE
Cosmos 2322 Rocket 4.0 06:10:43 10° N 06:15:58 37° ENE 06:21:10 10° SE
Cosmos 2233 Rocket 4.0 06:12:06 10° SSW 06:18:11 67° W 06:24:19 10° N
PAYLOAD B 4.4 06:13:51 10° N 06:19:22 61° WNW 06:24:51 10° SSW
NOSS 2-1 (C) 4.4 06:20:24 10° S 06:23:56 43° ESE 06:27:48 10° NE
NOSS 2-1 (D) 4.3 06:20:28 10° SSW 06:24:02 44° ESE 06:27:55 10° NE
USA 116 4.4 06:20:13 10° SSE 06:25:22 83° ENE 06:30:03 10° N
Cosmos 1624 Rocket 4.0 06:20:44 10° NNW 06:25:58 70° WSW 06:31:09 10° S
SL-16 R/B 3.5 06:23:02 10° NNW 06:28:30 47° ENE 06:33:57 10° SE
USA 234 4.2 06:23:41 10° ENE 06:29:57 46° SE 06:36:11 10° SSW
